Weather History for Perry, IA

Change the Weather History Date:

Monday, November 19, 2012

  Actual Average Record
Temperature  
Mean Temperature 51 °F -  
Max Temperature 63 °F 46 °F 67 °F (1975)
Min Temperature 39 °F 27 °F 6 °F (1989)
Degree Days  
Heating Degree Days 14    
Growing Degree Days 1 (Base 50)    
Moisture  
Dew Point 41 °F    
Average Humidity 71    
Maximum Humidity 86    
Minimum Humidity 51    
Precipitation  
Precipitation 0.07 in - - ()
Sea Level Pressure  
Sea Level Pressure 30.05 in    
Wind  
Wind Speed 10 mph (SSW)    
Max Wind Speed 17 mph    
Max Gust Speed 18 mph    
Visibility 10 miles    
Events Rain    
Averages and records for this station are not official NWS values.
T = Trace of Precipitation, MM = Missing Value Source: NWS Daily Summary

Daily Weather History Graph

Daily Weather History Graph

Search for Another Location

Airport:

Trip Planner

Search our weather history database for the weather conditions in past years. The results will help you decide how hot, cold, wet, or windy it might be!

Date:

Astronomy

Nov. 19, 2012 Rise Set
Actual Time 7:11 AM CST 4:52 PM CST
Civil Twilight 6:41 AM CST 5:22 PM CST
Nautical Twilight 6:07 AM CST 5:56 PM CST
Astronomical Twilight 5:34 AM CST 6:29 PM CST
Moon 12:12 PM CST (11/19) 11:22 PM CST (11/19)
Length of Visible Light 10h 41m
Length of Day
9h 40m
Waxing Crescent, 41% of the Moon is Illuminated
Nov 19
Waxing Crescent
Nov 20
First Quarter
Nov 28
Full
Dec 6
Last Quarter
Dec 13
New

Hourly Weather History & Observations

Time (CST) Temp. Windchill Dew Point Humidity Pressure Visibility Wind Dir Wind Speed Gust Speed Precip Events Conditions
12:15 AM 49.8 °F - 42.8 °F 77% 30.11 in 5.0 mi SE 9.2 mph - 0.07 in Rain Rain
12:35 AM 49.1 °F - 43.2 °F 80% 30.10 in 10.0 mi SE 9.2 mph - 0.07 in Rain Light Rain
12:55 AM 49.8 °F - 42.3 °F 75% 30.10 in 10.0 mi SE 8.1 mph - 0.07 in   Overcast
1:15 AM 50.0 °F - 41.9 °F 74% 30.08 in 10.0 mi SE 11.5 mph - N/A   Overcast
1:35 AM 50.2 °F - 41.7 °F 73% 30.08 in 10.0 mi SE 10.4 mph - N/A   Overcast
1:55 AM 50.2 °F - 41.4 °F 72% 30.08 in 10.0 mi SE 11.5 mph - N/A   Overcast
2:35 AM 50.0 °F - 41.0 °F 71% 30.07 in 10.0 mi SSE 10.4 mph - N/A   Overcast
2:55 AM 50.2 °F - 40.6 °F 70% 30.08 in 10.0 mi SSE 10.4 mph - N/A   Overcast
3:15 AM 49.6 °F - 41.0 °F 72% 30.07 in 10.0 mi SSE 8.1 mph - N/A   Overcast
3:55 AM 46.9 °F - 39.6 °F 76% 30.06 in 10.0 mi SE 9.2 mph - N/A   Scattered Clouds
4:15 AM 45.5 °F 41.8 °F 38.5 °F 76% 30.06 in 10.0 mi SE 6.9 mph - N/A   Clear
4:35 AM 44.1 °F 39.5 °F 38.1 °F 80% 30.07 in 10.0 mi SSE 8.1 mph - N/A   Clear
4:55 AM 44.8 °F 39.9 °F 37.6 °F 76% 30.06 in 10.0 mi SSE 9.2 mph - N/A   Clear
5:15 AM 43.7 °F 39.1 °F 36.7 °F 76% 30.06 in 10.0 mi SSE 8.1 mph - N/A   Clear
5:35 AM 42.6 °F 37.8 °F 36.5 °F 79% 30.06 in 10.0 mi SSE 8.1 mph - N/A   Clear
5:55 AM 42.8 °F 38.0 °F 36.5 °F 78% 30.06 in 10.0 mi SE 8.1 mph - N/A   Clear
6:15 AM 42.8 °F 37.5 °F 36.3 °F 78% 30.06 in 10.0 mi SSE 9.2 mph - N/A   Clear
6:35 AM 42.8 °F 38.0 °F 36.3 °F 78% 30.05 in 10.0 mi SSE 8.1 mph - N/A   Clear
6:55 AM 44.4 °F 39.5 °F 36.1 °F 73% 30.05 in 10.0 mi SSE 9.2 mph - N/A   Clear
7:35 AM 43.3 °F 37.7 °F 36.5 °F 77% 30.05 in 10.0 mi SSE 10.4 mph - N/A   Clear
7:55 AM 44.4 °F 40.0 °F 37.0 °F 75% 30.05 in 10.0 mi South 8.1 mph - N/A   Clear
8:15 AM 45.7 °F 41.5 °F 37.6 °F 73% 30.06 in 10.0 mi SSE 8.1 mph - N/A   Clear
8:35 AM 47.5 °F - 39.0 °F 72% 30.06 in 10.0 mi SSE 9.2 mph - N/A   Clear
8:55 AM 49.3 °F - 40.5 °F 72% 30.06 in 10.0 mi South 11.5 mph - N/A   Clear
9:15 AM 50.9 °F - 41.0 °F 69% 30.05 in 10.0 mi South 13.8 mph - N/A   Clear
9:35 AM 52.5 °F - 42.8 °F 70% 30.05 in 10.0 mi South 16.1 mph - N/A   Clear
9:55 AM 53.8 °F - 43.7 °F 69% 30.05 in 10.0 mi South 17.3 mph - N/A   Clear
10:15 AM 55.4 °F - 44.8 °F 67% 30.05 in 10.0 mi SSW 15.0 mph - N/A   Clear
10:35 AM 56.3 °F - 44.8 °F 65% 30.06 in 10.0 mi SSW 15.0 mph - N/A   Clear
10:55 AM 57.2 °F - 45.0 °F 64% 30.05 in 10.0 mi SSW 12.7 mph - N/A   Clear
11:15 AM 57.9 °F - 45.5 °F 63% 30.04 in 10.0 mi SSW 12.7 mph - N/A   Clear
11:35 AM 58.5 °F - 45.5 °F 62% 30.04 in 10.0 mi SSW 16.1 mph - N/A   Clear
11:55 AM 59.0 °F - 45.3 °F 60% 30.03 in 10.0 mi SSW 16.1 mph - N/A   Clear
12:15 PM 60.1 °F - 45.3 °F 58% 30.03 in 10.0 mi SSW 12.7 mph - N/A   Clear
12:35 PM 60.6 °F - 45.0 °F 56% 30.03 in 10.0 mi SW 11.5 mph - N/A   Clear
12:55 PM 61.0 °F - 45.3 °F 56% 30.02 in 10.0 mi SSW 11.5 mph - N/A   Clear
1:15 PM 62.1 °F - 45.5 °F 55% 30.01 in 10.0 mi South 11.5 mph - N/A   Clear
1:35 PM 62.2 °F - 45.3 °F 54% 30.01 in 10.0 mi SSW 12.7 mph 18.4 mph N/A   Clear
1:55 PM 62.6 °F - 45.0 °F 52% 30.01 in 10.0 mi South 9.2 mph - N/A   Clear
2:15 PM 63.1 °F - 44.8 °F 51% 30.00 in 10.0 mi SW 10.4 mph - N/A   Clear
2:35 PM 63.3 °F - 44.8 °F 51% 30.00 in 10.0 mi SW 10.4 mph - N/A   Clear
2:55 PM 62.4 °F - 44.6 °F 52% 30.00 in 10.0 mi SSW 8.1 mph - N/A   Clear
3:15 PM 62.8 °F - 45.1 °F 53% 30.00 in 10.0 mi SSW 9.2 mph - N/A   Clear
3:35 PM 62.8 °F - 45.0 °F 52% 30.01 in 10.0 mi WSW 6.9 mph - N/A   Clear
3:55 PM 62.1 °F - 45.0 °F 53% 30.02 in 10.0 mi SW 8.1 mph - N/A   Clear
4:15 PM 60.3 °F - 45.5 °F 58% 30.02 in 10.0 mi SW 6.9 mph - N/A   Clear
4:35 PM 57.6 °F - 45.7 °F 65% 30.02 in 10.0 mi SW 6.9 mph - N/A   Clear
4:55 PM 55.6 °F - 45.1 °F 68% 30.02 in 10.0 mi SSW 5.8 mph - N/A   Clear
5:15 PM 52.3 °F - 43.9 °F 73% 30.02 in 10.0 mi SW 6.9 mph - N/A   Clear
5:35 PM 54.5 °F - 44.2 °F 68% 30.03 in 10.0 mi SW 6.9 mph - N/A   Clear
5:55 PM 50.0 °F - 42.1 °F 74% 30.03 in 10.0 mi SSW 5.8 mph - N/A   Clear
6:15 PM 51.6 °F - 42.8 °F 72% 30.04 in 10.0 mi SW 8.1 mph - N/A   Clear
6:35 PM 49.3 °F - 42.3 °F 77% 30.04 in 10.0 mi West 10.4 mph - N/A   Clear
6:55 PM 48.2 °F - 40.6 °F 75% 30.05 in 10.0 mi West 10.4 mph - N/A   Clear
7:15 PM 46.6 °F - 39.6 °F 77% 30.05 in 10.0 mi WNW 6.9 mph - N/A   Clear
7:55 PM 45.5 °F 40.8 °F 38.5 °F 76% 30.06 in 10.0 mi West 9.2 mph - N/A   Clear
8:15 PM 44.4 °F 39.5 °F 37.9 °F 78% 30.06 in 10.0 mi West 9.2 mph - N/A   Clear
8:35 PM 43.7 °F 39.1 °F 37.4 °F 78% 30.06 in 10.0 mi WNW 8.1 mph - N/A   Clear
9:15 PM 41.7 °F 36.1 °F 36.7 °F 82% 30.06 in 10.0 mi West 9.2 mph - N/A   Clear
9:35 PM 41.2 °F 36.0 °F 36.5 °F 83% 30.06 in 7.0 mi West 8.1 mph - N/A   Clear
9:55 PM 40.8 °F 35.6 °F 36.1 °F 83% 30.06 in 7.0 mi West 8.1 mph - N/A   Clear
10:15 PM 40.3 °F 34.4 °F 36.3 °F 86% 30.06 in 7.0 mi WNW 9.2 mph - N/A   Clear
10:35 PM 39.9 °F 34.5 °F 36.1 °F 86% 30.05 in 7.0 mi WNW 8.1 mph - N/A   Clear
10:55 PM 42.4 °F 37.5 °F 37.6 °F 83% 30.05 in 10.0 mi WNW 8.1 mph - N/A   Clear
11:15 PM 43.0 °F 38.8 °F 37.4 °F 81% 30.05 in 10.0 mi WNW 6.9 mph - N/A   Clear
11:35 PM 40.5 °F 37.3 °F 36.5 °F 86% 30.06 in 7.0 mi West 4.6 mph - N/A   Clear
11:55 PM 41.0 °F 37.1 °F 37.2 °F 86% 30.07 in 7.0 mi WNW 5.8 mph - N/A   Clear